Regional Weather Roundup
Issued by NWS

Home | Current Version | Previous Version | Text Only | Print | Product List | Glossary Off
Versions: 1 2 3 4 5 6 7 8 9 10 11 12 13 14 15 16 17 18 19 20 21 22 23 24 25 26 27 28 29 30 31 32 33 34 35 36 37 38 39 40 41 42 43 44 45 46 47 48 49 50

000
ASUS45 KCYS 021210
RWRWY

WYOMING REGIONAL WEATHER ROUNDUP
NATIONAL WEATHER SERVICE CHEYENNE WY
500 AM MST MON MAR 02 2015

NOTE:  "FAIR" INDICATES FEW OR NO CLOUDS BELOW 12,000 FEET
WITH NO SIGNIFICANT WEATHER AND/OR OBSTRUCTIONS TO VISIBILITY.

WYZ001-021300-
YELLOWSTONE NATIONAL PARK

CITY           SKY/WX    TMP DP  RH WIND       PRES   REMARKS
LK YELLOWSTONE   N/A    -11 -16  78 CALM      29.89F
6HR MIN TEMP: -11; 6HR MAX TEMP:  -4;

W YELLOWSTONE  NOT AVBL

$$
WYZ002>013-054>058-071-098>099-021300-
NORTHERN WYOMING

CITY           SKY/WX    TMP DP  RH WIND       PRES   REMARKS
JACKSON        CLOUDY     7   1  78 N14       29.91F WCI -10
CODY           FAIR      14   9  79 S6        29.86S WCI   5
GREYBULL       FAIR      12   7  80 SE6       29.95S WCI   3
6HR MIN TEMP:  10; 6HR MAX TEMP:  19;

WORLAND        FAIR      15  10  80 S5        29.93S WCI   8
6HR MIN TEMP:  13; 6HR MAX TEMP:  19;

SHERIDAN       FAIR       5  -1  76 CALM      29.87F
6HR MIN TEMP:   3; 6HR MAX TEMP:  11;

BUFFALO        FAIR      16  -1  47 SW3       29.84F
6HR MIN TEMP:   9; 6HR MAX TEMP:  19;

GILLETTE       FAIR      17   9  70 S22       29.89F WCI   0
6HR MIN TEMP:  16; 6HR MAX TEMP:  18;

HULETT         FAIR      27  18  69 SW6       29.92F WCI  20
NEWCASTLE      FAIR      27  14  59 SE15G21   29.99F WCI  15

$$
WYZ014>020-022>026-101>103-021300-
CENTRAL WYOMING

CITY           SKY/WX    TMP DP  RH WIND       PRES   REMARKS
BIG PINEY      MOCLDY    11   6  81 E7        29.89F WCI   0
6HR MIN TEMP:  10; 6HR MAX TEMP:  16;

PINEDALE       FAIR       3   0  85 W7        29.89F WCI  -9
DUBOIS         FAIR      14   9  79 NW13      29.84F WCI   0
LANDER         FAIR      10   5  80 NW5       29.90F WCI   2
6HR MIN TEMP:   9; 6HR MAX TEMP:  14;

RIVERTON       FAIR       9   5  84 N6        29.92F WCI  -1
6HR MIN TEMP:   8; 6HR MAX TEMP:  16;

CASPER         FAIR      20  15  81 NE6       29.90F WCI  12
6HR MIN TEMP:  16; 6HR MAX TEMP:  20;

DOUGLAS        FAIR      24  17  74 SE13      29.93F WCI  12
6HR MIN TEMP:  22; 6HR MAX TEMP:  24;


$$
WYZ021-027>030-104>119-021300-
SOUTHERN WYOMING

CITY           SKY/WX    TMP DP  RH WIND       PRES   REMARKS
EVANSTON       MOCLDY    23  19  85 E8        29.84F WCI  14
6HR MIN TEMP:  23; 6HR MAX TEMP:  25; 6HR PCP: TRACE;

KEMMERER       CLOUDY    19  18  93 N8        29.86  WCI   9
FORT BRIDGER   CLOUDY    24  22  93 E3        29.90S
ROCK SPRINGS   CLOUDY    21  16  81 NE3       29.88F
6HR MIN TEMP:  20; 6HR MAX TEMP:  24;

DIXON          LGT SNOW  31  30  96 CALM      29.93F
RAWLINS        CLOUDY    22  16  78 CALM      29.90F
6HR MIN TEMP:  21; 6HR MAX TEMP:  23;

SARATOGA       LGT SNOW  28  28 100 S8        29.91S VSB 1   WCI  20
LARAMIE        LGT SNOW  22  19  89 S16       29.90S FOG     WCI   8
6HR MIN TEMP:  17; 6HR MAX TEMP:  23; 6HR PCP: TRACE;

CHEYENNE       CLOUDY    19  16  88 S12       29.97F FOG     WCI   7
6HR MIN TEMP:  19; 6HR MAX TEMP:  20; 6HR PCP: TRACE;

TORRINGTON     FAIR      28  18  66 SE6       30.03F WCI  22
6HR MIN TEMP:  25; 6HR MAX TEMP:  28;

PINE BLUFFS    CLOUDY    27  19  74 S13G18    30.03F WCI  16

$$


USA.gov is the U.S. government's official web portal to all federal, state and local government web resources and services.